STAR ONE C3

Last updated on Sat Dec 13 2025 00:02:48 GMT+0000 (Coordinated Universal Time)

1 38991U 12062A 25346.26145903 -.00000239 00000+0 00000+0 0 9994 2 38991 0.0190 289.2097 0002130 336.9747 194.1485 1.00273675 47895
UTC large
Height (km)
Speed (km/s)
/
Latitude / Longitude
Inclination (degrees)
Orbital Period (minutes)
Azimuth
Elevation
Range (km)
Doppler Factor

Next 0 passes for location: London (51.5072 / 0.1276)

Sorry there are no passes over London.